| time (UTC) | temp C | wind direction | speed KPH | gust KPH | rain 1hr cm | rain 24hr cm | rain mn cm | humidity % | barometer mb |
| 20260905191526 | 34 | 206 | 4.8 | 11.3 | 0.00 | 0.00 | 0.00 | 18 | 1013.2 |
| 20260905190018 | 33 | 183 | 3.2 | 14.5 | 0.00 | 0.00 | 0.00 | 20 | 1013.4 |
| 20260905184516 | 33 | 256 | 4.8 | 9.7 | 0.00 | 0.00 | 0.00 | 19 | 1013.6 |
| 20260905183012 | 32 | 125 | 4.8 | 8.0 | 0.00 | 0.00 | 0.00 | 21 | 1013.6 |
| 20260905181510 | 31 | 153 | 3.2 | 8.0 | 0.00 | 0.00 | 0.00 | 22 | 1013.7 |
| 20260905180005 | 30 | 186 | 1.6 | 8.0 | 0.00 | 0.00 | 0.00 | 26 | 1013.7 |
| 20260905174504 | 30 | 139 | 1.6 | 9.7 | 0.00 | 0.00 | 0.00 | 27 | 1013.9 |
| 20260905173003 | 29 | 212 | 0.0 | 8.0 | 0.00 | 0.00 | 0.00 | 28 | 1013.6 |
| 20260905171603 | 29 | 288 | 3.2 | 9.7 | 0.00 | 0.00 | 0.00 | 27 | 1013.5 |
| 20260905170106 | 28 | 215 | 3.2 | 8.0 | 0.00 | 0.00 | 0.00 | 28 | 1013.6 |
| 20260905164603 | 27 | 213 | 0.0 | 3.2 | 0.00 | 0.00 | 0.00 | 28 | 1013.5 |
| 20260905163051 | 26 | 153 | 0.0 | 3.2 | 0.00 | 0.00 | 0.00 | 28 | 1013.5 |
| 20260905161548 | 25 | 149 | 0.0 | 3.2 | 0.00 | 0.00 | 0.00 | 34 | 1013.5 |
| 20260905160044 | 24 | 259 | 0.0 | 3.2 | 0.00 | 0.00 | 0.00 | 39 | 1013.5 |
| 20260905154541 | 22 | 180 | 0.0 | 6.4 | 0.00 | 0.00 | 0.00 | 42 | 1013.5 |
| 20260905153039 | 22 | 246 | 3.2 | 6.4 | 0.00 | 0.00 | 0.00 | 43 | 1013.4 |
| 20260905151537 | 21 | 29 | 0.0 | 0.0 | 0.00 | 0.00 | 0.00 | 45 | 1013.4 |
| 20260905150029 | 18 | 29 | 0.0 | 0.0 | 0.00 | 0.00 | 0.00 | 60 | 1013.5 |
| 20260905144532 | 17 | 29 | 0.0 | 0.0 | 0.00 | 0.00 | 0.00 | 63 | 1013.4 |
| 20260905143021 | 16 | 24 | 0.0 | 1.6 | 0.00 | 0.00 | 0.00 | 66 | 1013.4 |
| 20260905141516 | 15 | 24 | 0.0 | 0.0 | 0.00 | 0.00 | 0.00 | 69 | 1013.2 |
| 20260905140012 | 14 | 12 | 0.0 | 3.2 | 0.00 | 0.00 | 0.00 | 70 | 1013.2 |
| 20260905134508 | 14 | 52 | 0.0 | 0.0 | 0.00 | 0.00 | 0.00 | 71 | 1013.0 |
| 20260905133007 | 14 | 52 | 0.0 | 0.0 | 0.00 | 0.00 | 0.00 | 71 | 1012.8 |
| 20260905131505 | 14 | 53 | 0.0 | 0.0 | 0.00 | 0.00 | 0.00 | 71 | 1012.8 |
| 20260905130004 | 14 | 53 | 0.0 | 0.0 | 0.00 | 0.00 | 0.00 | 72 | 1012.7 |
| 20260905124512 | 14 | 52 | 0.0 | 0.0 | 0.00 | 0.00 | 0.00 | 72 | 1012.4 |
| 20260905123002 | 14 | 52 | 0.0 | 0.0 | 0.00 | 0.00 | 0.00 | 72 | 1012.5 |
| 20260905121601 | 14 | 52 | 0.0 | 0.0 | 0.00 | 0.00 | 0.00 | 74 | 1012.6 |
| 20260905120100 | 14 | 53 | 0.0 | 0.0 | 0.00 | 0.00 | 0.00 | 74 | 1012.5 |
| 20260905114558 | 14 | 52 | 0.0 | 0.0 | 0.00 | 0.00 | 0.00 | 74 | 1012.6 |
| 20260905113102 | 15 | 61 | 0.0 | 0.0 | 0.00 | 0.00 | 0.00 | 76 | 1012.5 |
| 20260905111604 | 15 | 61 | 0.0 | 0.0 | 0.00 | 0.00 | 0.00 | 76 | 1012.6 |
| 20260905110052 | 15 | 61 | 0.0 | 0.0 | 0.00 | 0.00 | 0.00 | 77 | 1012.7 |
| 20260905104607 | 15 | 61 | 0.0 | 0.0 | 0.00 | 0.00 | 0.00 | 78 | 1012.8 |
| 20260905103051 | 15 | 61 | 0.0 | 0.0 | 0.00 | 0.00 | 0.00 | 78 | 1012.7 |
| 20260905101550 | 15 | 61 | 0.0 | 0.0 | 0.00 | 0.00 | 0.00 | 78 | 1012.8 |
| 20260905100047 | 16 | 61 | 0.0 | 0.0 | 0.00 | 0.00 | 0.00 | 78 | 1012.6 |
| 20260905094545 | 16 | 61 | 0.0 | 0.0 | 0.00 | 0.00 | 0.00 | 79 | 1012.7 |
| 20260905093043 | 16 | 49 | 0.0 | 0.0 | 0.00 | 0.00 | 0.00 | 78 | 1012.8 |
| 20260905091542 | 16 | 49 | 0.0 | 0.0 | 0.00 | 0.00 | 0.00 | 79 | 1012.8 |
| 20260905084538 | 17 | 24 | 0.0 | 0.0 | 0.00 | 0.00 | 0.00 | 78 | 1013.1 |
| 20260905083036 | 17 | 24 | 0.0 | 0.0 | 0.00 | 0.00 | 0.00 | 78 | 1013.1 |
| 20260905081533 | 17 | 1 | 0.0 | 1.6 | 0.00 | 0.00 | 0.00 | 78 | 1013.4 |
| 20260905080031 | 17 | 359 | 0.0 | 3.2 | 0.00 | 0.00 | 0.00 | 78 | 1013.5 |
| 20260905074529 | 17 | 1 | 0.0 | 3.2 | 0.00 | 0.00 | 0.00 | 77 | 1013.7 |
| 20260905073031 | 18 | 139 | 0.0 | 0.0 | 0.00 | 0.00 | 0.00 | 76 | 1013.9 |
| 20260905071525 | 18 | 139 | 0.0 | 0.0 | 0.00 | 0.00 | 0.00 | 75 | 1013.9 |
| 20260905070024 | 18 | 139 | 0.0 | 0.0 | 0.00 | 0.00 | 0.00 | 75 | 1013.8 |
| 20260905064524 | 18 | 139 | 0.0 | 0.0 | 0.00 | 0.00 | 0.00 | 74 | 1013.6 |
| 20260905063022 | 18 | 139 | 0.0 | 0.0 | 0.00 | 0.00 | 0.00 | 74 | 1013.6 |
| 20260905061531 | 19 | 139 | 0.0 | 0.0 | 0.00 | 0.00 | 0.00 | 73 | 1013.5 |
| 20260905060021 | 19 | 139 | 0.0 | 0.0 | 0.00 | 0.00 | 0.00 | 73 | 1013.4 |
| 20260905054526 | 19 | 139 | 0.0 | 0.0 | 0.00 | 0.00 | 0.00 | 72 | 1013.4 |
| 20260905053022 | 20 | 139 | 0.0 | 0.0 | 0.00 | 0.00 | 0.00 | 71 | 1013.2 |
| 20260905051521 | 20 | 139 | 0.0 | 0.0 | 0.00 | 0.00 | 0.00 | 70 | 1013.3 |
| 20260905050018 | 20 | 139 | 0.0 | 0.0 | 0.00 | 0.00 | 0.00 | 69 | 1013.4 |
| 20260905044524 | 21 | 139 | 0.0 | 1.6 | 0.00 | 0.00 | 0.00 | 69 | 1013.2 |
| 20260905043016 | 21 | 139 | 0.0 | 0.0 | 0.00 | 0.00 | 0.00 | 68 | 1013.0 |
| 20260905041516 | 21 | 139 | 0.0 | 3.2 | 0.00 | 0.00 | 0.00 | 68 | 1012.9 |
| 20260905040015 | 21 | 163 | 1.6 | 8.0 | 0.00 | 0.00 | 0.00 | 68 | 1013.0 |
| 20260905034515 | 22 | 163 | 0.0 | 9.7 | 0.00 | 0.00 | 0.00 | 67 | 1012.8 |
| 20260905033017 | 22 | 216 | 0.0 | 1.6 | 0.00 | 0.00 | 0.00 | 64 | 1012.7 |
| 20260905031514 | 22 | 178 | 1.6 | 4.8 | 0.00 | 0.00 | 0.00 | 62 | 1012.5 |
| 20260905030013 | 23 | 242 | 0.0 | 8.0 | 0.00 | 0.00 | 0.00 | 60 | 1012.3 |
| 20260905024512 | 23 | 252 | 4.8 | 9.7 | 0.00 | 0.00 | 0.00 | 57 | 1012.0 |
| 20260905023012 | 24 | 236 | 0.0 | 6.4 | 0.00 | 0.00 | 0.00 | 53 | 1012.0 |
| 20260905021520 | 25 | 189 | 0.0 | 8.0 | 0.00 | 0.00 | 0.00 | 50 | 1011.9 |
| 20260905020011 | 25 | 179 | 1.6 | 6.4 | 0.00 | 0.00 | 0.00 | 44 | 1011.9 |
| 20260905014509 | 26 | 253 | 3.2 | 9.7 | 0.00 | 0.00 | 0.00 | 40 | 1011.7 |
| 20260905013009 | 27 | 178 | 4.8 | 9.7 | 0.00 | 0.00 | 0.00 | 38 | 1011.7 |
| 20260905011508 | 27 | 166 | 3.2 | 11.3 | 0.00 | 0.00 | 0.00 | 38 | 1011.7 |
| 20260905010006 | 27 | 127 | 0.0 | 11.3 | 0.00 | 0.00 | 0.00 | 36 | 1011.6 |
| 20260905004504 | 28 | 155 | 1.6 | 12.9 | 0.00 | 0.00 | 0.00 | 36 | 1011.7 |
| 20260905003003 | 28 | 161 | 6.4 | 12.9 | 0.00 | 0.00 | 0.00 | 38 | 1011.8 |
| 20260905001502 | 28 | 180 | 8.0 | 16.1 | 0.00 | 0.00 | 0.00 | 38 | 1011.8 |
| 20260905000100 | 28 | 163 | 3.2 | 12.9 | 0.00 | 0.00 | 0.00 | 39 | 1011.8 |
| 20260904234601 | 29 | 163 | 3.2 | 16.1 | 0.00 | 0.00 | 0.00 | 39 | 1011.8 |
| 20260904233059 | 29 | 250 | 3.2 | 12.9 | 0.00 | 0.00 | 0.00 | 39 | 1011.7 |
| 20260904231557 | 29 | 180 | 1.6 | 16.1 | 0.00 | 0.00 | 0.00 | 40 | 1011.9 |
| 20260904230056 | 29 | 226 | 3.2 | 9.7 | 0.00 | 0.00 | 0.00 | 41 | 1011.9 |
| 20260904224555 | 29 | 204 | 4.8 | 14.5 | 0.00 | 0.00 | 0.00 | 40 | 1011.9 |
| 20260904223053 | 29 | 220 | 6.4 | 16.1 | 0.00 | 0.00 | 0.00 | 40 | 1012.0 |
| 20260904221555 | 30 | 175 | 6.4 | 16.1 | 0.00 | 0.00 | 0.00 | 40 | 1012.1 |
| 20260904220049 | 30 | 159 | 6.4 | 17.7 | 0.00 | 0.00 | 0.00 | 40 | 1012.3 |
| 20260904214557 | 30 | 160 | 9.7 | 19.3 | 0.00 | 0.00 | 0.00 | 40 | 1012.2 |
| 20260904213048 | 30 | 224 | 6.4 | 16.1 | 0.00 | 0.00 | 0.00 | 40 | 1012.2 |
| 20260904211548 | 30 | 178 | 4.8 | 19.3 | 0.00 | 0.00 | 0.00 | 38 | 1012.2 |
| 20260904210046 | 31 | 159 | 8.0 | 20.9 | 0.00 | 0.00 | 0.00 | 39 | 1012.3 |
| 20260904204545 | 31 | 258 | 6.4 | 14.5 | 0.00 | 0.00 | 0.00 | 39 | 1012.2 |
| 20260904203041 | 30 | 144 | 8.0 | 17.7 | 0.00 | 0.00 | 0.00 | 40 | 1012.4 |
| 20260904201540 | 30 | 213 | 4.8 | 14.5 | 0.00 | 0.00 | 0.00 | 40 | 1012.4 |
| 20260904200039 | 31 | 172 | 1.6 | 14.5 | 0.00 | 0.00 | 0.00 | 38 | 1012.4 |
| 20260904194538 | 30 | 149 | 4.8 | 16.1 | 0.00 | 0.00 | 0.00 | 37 | 1012.6 |
| 20260904193035 | 29 | 153 | 4.8 | 11.3 | 0.00 | 0.00 | 0.00 | 38 | 1012.6 |